Weather in Mirny

Russia / Republic of Crimea     45°18′29″N   33°02′04″E
temp.,
°C
wind,
m/s
gust,
m/s
humid.,
%
clouds,
%
prec.,
mm/h
press.,
hPa
HPBL,
m
8 august, mon
mon800:00+26nne58540 0.0 1013133
03:00+25nne711590 0.0 1013200
06:00+25nne610580 0.0 1013175
09:00+28ene68440 0.0 1014195
12:00+30ene44420 0.0 1013470
15:00+31e45421 0.0 1012495
18:00+31e79360 0.0 1013448
21:00+28ene57420 0.0 101456
9 august, tue
tue900:00+26ne57460 0.0 101484
03:00+25ne610480 0.0 1014142
06:00+24ne611480 0.0 1014186
09:00+28ene69420 0.0 1013172
12:00+30e45430 0.0 1013459
15:00+31e68391 0.0 1011484
18:00+31e81135100 0.0 1011342
21:00+28ne564492 0.0 101147
10 august, wed
wed1000:00+26nne61048100 0.0 1011123
03:00+26nne81449100 0.0 1010247
06:00+26nne81347100 0.0 1010180
09:00+28nne8114387 0.0 1009376
12:00+31ene11133652 0.0 1008500
15:00+31ene11143495 0.0 1007511
18:00+29e5847100 0.0 1008397
21:00+28n5747100 0.0 100763
11 august, thu
thu1100:00+27nne10155680 0.0 1007296
03:00+26n111663100 0.0 1006412
06:00+25nne9136686 0.0 1006349
09:00+28ne565543 0.0 1006137
12:00+30e675218 0.0 1006377
15:00+30ne8104522 0.0 1007358
18:00+28ene795126 0.0 1009206
21:00+27nne575737 0.0 100987
12 august, fri
fri1200:00+25ne6106240 0.0 1010201
03:00+26nne812600 0.0 1009300
06:00+24ne69614 0.0 1010301
09:00+26nne56621 0.0 1010401
12:00+28n67570 0.0 1010283
15:00+29nw77580 0.0 1009337
18:00+28nw78620 0.0 1009181
21:00+27n46690 0.0 1009102